Location: Altoona
(40.5167°N, 78.4000°W)
Time: 00:58:14
(UTC-05:00)

Cosmos 1515 - Pass Details

Date: 21 August 2017
Orbit: 508 x 520 km, 82.5° (Epoch: 24 November)

Event Time Altitude Azimuth Distance (km) Brightness Sun altitude
Rises 21:32:18 0° 360° (N) 2,629 7.8 -16.4°
Reaches altitude 10° 21:34:32 10° 8° (N) 1,740 6.7 -16.8°
Maximum altitude 21:38:08 40° 79° (ENE) 772 4.2 -17.4°
Enters shadow 21:38:34 38° 97° (E) 794 4.2 -17.4°
